Weather History for Greenville/Spartanburg, SC

Change the Weather History Date:

Thursday, September 13, 2012

  Actual Average Record
Temperature  
Mean Temperature 69 °F 73 °F  
Max Temperature 79 °F 83 °F 96 °F (1962)
Min Temperature 59 °F 63 °F 48 °F (1917)
Degree Days  
Heating Degree Days 0 0  
Month to date heating degree days 0 0  
Since 1 July heating degree days 0 0  
Cooling Degree Days 4 8  
Month to date cooling degree days 140 129  
Year to date cooling degree days 1706 1564  
Growing Degree Days 19 (Base 50)    
Moisture  
Dew Point 57 °F    
Average Humidity 68    
Maximum Humidity 90    
Minimum Humidity 45    
Precipitation  
Precipitation 0.00 in 0.11 in 4.21 in (1966)
Month to date precipitation 1.32 1.54  
Year to date precipitation 28.38 34.05  
Snow  
Snow 0.00 in 0.00 in 0.00 in ()
Month to date snowfall 0.0 0.0  
Since 1 July snowfall T 0.0  
Since 1 September snowfall 0.0 0.0  
Snow Depth 0.00 in    
Sea Level Pressure  
Sea Level Pressure 30.28 in    
Wind  
Wind Speed 4 mph (NNE)    
Max Wind Speed 12 mph    
Max Gust Speed 15 mph    
Visibility 10 miles    
Events      
T = Trace of Precipitation, MM = Missing Value Source: NWS Daily Summary

Daily Weather History Graph

Daily Weather History Graph

Search for Another Location

Airport:

Trip Planner

Search our weather history database for the weather conditions in past years. The results will help you decide how hot, cold, wet, or windy it might be!

Date:

Astronomy

Sep. 13, 2012 Rise Set
Actual Time 7:10 AM EDT 7:37 PM EDT
Civil Twilight 6:45 AM EDT 8:03 PM EDT
Nautical Twilight 6:15 AM EDT 8:32 PM EDT
Astronomical Twilight 5:45 AM EDT 9:03 PM EDT
Moon 4:33 AM EDT (9/13) 5:56 PM EDT (9/13)
Length of Visible Light 13h 17m
Length of Day
12h 27m
Waning Crescent, 7% of the Moon is Illuminated
Sep 13
Waning Crescent
Sep 15
New
Sep 22
First Quarter
Sep 29
Full
Oct 8
Last Quarter

Hourly Weather History & Observations

Time (EDT) Temp. Dew Point Humidity Pressure Visibility Wind Dir Wind Speed Gust Speed Precip Events Conditions
12:53 AM 62.1 °F 57.9 °F 86% 30.28 in 10.0 mi NNE 3.5 mph - N/A   Clear
1:53 AM 61.0 °F 57.0 °F 87% 30.28 in 10.0 mi Calm Calm - N/A   Partly Cloudy
2:53 AM 61.0 °F 57.0 °F 87% 30.29 in 10.0 mi Calm Calm - N/A   Mostly Cloudy
3:53 AM 60.1 °F 57.0 °F 90% 30.27 in 10.0 mi Calm Calm - N/A   Partly Cloudy
4:53 AM 60.1 °F 57.0 °F 90% 30.28 in 10.0 mi NNE 4.6 mph - N/A   Partly Cloudy
5:53 AM 60.1 °F 57.0 °F 90% 30.29 in 10.0 mi NNE 4.6 mph - N/A   Clear
6:53 AM 59.0 °F 55.9 °F 90% 30.31 in 10.0 mi North 4.6 mph - N/A   Clear
7:53 AM 60.1 °F 55.9 °F 86% 30.32 in 10.0 mi NNE 4.6 mph - N/A   Clear
8:53 AM 62.1 °F 57.0 °F 84% 30.33 in 10.0 mi NNE 5.8 mph - N/A   Clear
9:53 AM 66.9 °F 57.9 °F 73% 30.34 in 10.0 mi NE 6.9 mph - N/A   Clear
10:53 AM 70.0 °F 57.9 °F 65% 30.34 in 10.0 mi ENE 6.9 mph - N/A   Clear
11:53 AM 73.9 °F 57.9 °F 57% 30.33 in 10.0 mi ENE 8.1 mph - N/A   Clear
12:53 PM 75.0 °F 55.9 °F 51% 30.31 in 10.0 mi NE 9.2 mph - N/A   Scattered Clouds
1:53 PM 78.1 °F 55.9 °F 46% 30.29 in 10.0 mi Variable 4.6 mph - N/A   Scattered Clouds
2:53 PM 77.0 °F 55.9 °F 48% 30.26 in 10.0 mi NE 8.1 mph - N/A   Partly Cloudy
3:53 PM 75.9 °F 55.9 °F 50% 30.25 in 10.0 mi Variable 3.5 mph - N/A   Partly Cloudy
4:53 PM 75.9 °F 55.9 °F 50% 30.24 in 10.0 mi NNE 6.9 mph - N/A   Clear
5:53 PM 75.9 °F 57.0 °F 52% 30.23 in 10.0 mi NNE 6.9 mph - N/A   Mostly Cloudy
6:53 PM 73.0 °F 57.9 °F 59% 30.23 in 10.0 mi NE 3.5 mph - N/A   Partly Cloudy
7:53 PM 70.0 °F 59.0 °F 68% 30.24 in 10.0 mi NE 3.5 mph - N/A   Scattered Clouds
8:53 PM 70.0 °F 59.0 °F 68% 30.24 in 10.0 mi Calm Calm - N/A   Overcast
9:53 PM 69.1 °F 59.0 °F 70% 30.25 in 10.0 mi NE 3.5 mph - N/A   Overcast
10:53 PM 68.0 °F 57.9 °F 70% 30.25 in 10.0 mi Calm Calm - N/A   Partly Cloudy
11:53 PM 66.0 °F 59.0 °F 78% 30.25 in 10.0 mi North 3.5 mph - N/A   Clear